Ft. Stewart, GA

5:23 AM EDT on October 18, 2017 (GMT -0400)
Wright Army Air Field

Weather History for KLHW - June, 2012

Change the Weather History Date:

Saturday, June 16, 2012

  Actual Average Record
Temperature  
Mean Temperature 74 °F -  
Max Temperature 86 °F 90 °F 100 °F (1981)
Min Temperature 64 °F 68 °F 57 °F (1983)
Cooling Degree Days 10    
Growing Degree Days 24 (Base 50)    
Moisture  
Dew Point 61 °F    
Average Humidity 67    
Maximum Humidity 95    
Minimum Humidity 34    
Precipitation  
Precipitation 0.00 in - - ()
Sea Level Pressure  
Sea Level Pressure 30.13 in    
Wind  
Wind Speed 6 mph (NE)    
Max Wind Speed 14 mph    
Max Gust Speed 17 mph    
Visibility 10 miles    
Events      
Averages and records for this station are not official NWS values.
T = Trace of Precipitation, MM = Missing Value Source: NWS Daily Summary

Daily Weather History Graph

Daily Weather History Graph

Search for Another Location

Airport or City:

Trip Planner

Search our weather history database for the weather conditions in past years. The results will help you decide how hot, cold, wet, or windy it might be!

Date:

Astronomy

Jun. 16, 2012 Rise Set
Actual Time 6:20 AM EDT 8:34 PM EDT
Civil Twilight 5:51 AM EDT 9:02 PM EDT
Nautical Twilight 5:17 AM EDT 9:36 PM EDT
Astronomical Twilight 4:40 AM EDT 10:14 PM EDT
Moon 4:03 AM EDT (6/16) 6:11 PM EDT (6/16)
Length of Visible Light 15h 10m
Length of Day
14h 13m
Waning Crescent, 8% of the Moon is Illuminated
Jun 16
Waning Crescent
Jun 19
New
Jun 26
First Quarter
Jul 3
Full
Jul 10
Last Quarter

Hourly Weather History & Observations

Time (EDT) Temp. Heat Index Dew Point Humidity Pressure Visibility Wind Dir Wind Speed Gust Speed Precip Events Conditions
12:55 AM 65.8 °F - 63.3 °F 92% 30.13 in 10.0 mi Calm Calm - N/A   Clear
1:55 AM 64.9 °F - 63.1 °F 94% 30.12 in 10.0 mi Calm Calm - N/A   Clear
2:55 AM 64.9 °F - 63.5 °F 95% 30.11 in 10.0 mi NNE 5.8 mph - N/A   Clear
3:55 AM 66.0 °F - 64.4 °F 94% 30.11 in 10.0 mi NNE 4.6 mph - N/A   Partly Cloudy
4:55 AM 65.7 °F - 64.0 °F 94% 30.11 in 10.0 mi North 5.8 mph - N/A   Clear
5:55 AM 66.0 °F - 64.0 °F 93% 30.13 in 10.0 mi NNE 4.6 mph - N/A   Clear
6:55 AM 66.9 °F - 63.9 °F 90% 30.14 in 10.0 mi NNE 8.1 mph - N/A   Clear
7:55 AM 69.6 °F - 65.1 °F 86% 30.15 in 10.0 mi NE 8.1 mph - N/A   Clear
8:55 AM 73.8 °F - 61.9 °F 66% 30.18 in 10.0 mi NE 10.4 mph - N/A   Clear
9:55 AM 77.5 °F - 59.7 °F 54% 30.19 in 10.0 mi NE 11.5 mph - N/A   Clear
10:55 AM 79.7 °F - 58.3 °F 48% 30.19 in 10.0 mi ENE 10.4 mph - N/A   Clear
11:55 AM 81.3 °F 81.3 °F 57.2 °F 44% 30.19 in 10.0 mi NNE 13.8 mph - N/A   Clear
12:55 PM 82.9 °F 82.4 °F 56.8 °F 41% 30.17 in 10.0 mi NNE 10.4 mph 17.3 mph N/A   Scattered Clouds
1:55 PM 83.8 °F 83.1 °F 57.4 °F 40% 30.15 in 10.0 mi NE 12.7 mph - N/A   Mostly Cloudy
2:55 PM 84.6 °F 83.2 °F 54.9 °F 36% 30.13 in 10.0 mi NNE 11.5 mph - N/A   Partly Cloudy
3:55 PM 85.5 °F 84.1 °F 55.6 °F 36% 30.12 in 10.0 mi NE 11.5 mph - N/A   Clear
4:55 PM 84.9 °F 83.3 °F 54.0 °F 34% 30.11 in 10.0 mi ENE 5.8 mph - N/A   Clear
5:55 PM 84.9 °F 83.4 °F 54.3 °F 35% 30.10 in 10.0 mi NE 6.9 mph - N/A   Clear
6:55 PM 80.8 °F 81.8 °F 61.5 °F 52% 30.09 in 10.0 mi ESE 12.7 mph - N/A   Clear
7:55 PM 77.5 °F - 61.3 °F 57% 30.10 in 10.0 mi East 11.5 mph - N/A   Clear
8:55 PM 73.0 °F - 62.4 °F 69% 30.10 in 10.0 mi East 3.5 mph - N/A   Clear
9:55 PM 70.7 °F - 63.0 °F 76% 30.12 in 10.0 mi Calm Calm - N/A   Clear
10:55 PM 67.6 °F - 63.1 °F 85% 30.12 in 10.0 mi Calm Calm - N/A   Clear
11:55 PM 65.3 °F - 62.6 °F 91% 30.13 in 10.0 mi Calm Calm - N/A   Clear